{"data":{"norad_id":52567,"intl_designator":"2022-051AL","name":"STARLINK-3929","alt_names":[],"object_type":"PAYLOAD","status":"ACTIVE","operator":null,"country":"US","launch_date":"2022-05-13","launch_site_code":"AFWTR","launch_vehicle":null,"mission":null,"orbit_class":"UNKNOWN","rcs_meters":null,"size_class":null,"mass_kg":null,"dimensions":null,"purposes":["comms"],"wikipedia_slug":null,"has_3d_model":false,"image_url":null,"decayed_at":null,"tle_current":{"epoch":"2026-09-19T20:39:26.525952Z","epoch_age_seconds":118551,"freshness":"FRESH","line1":"1 52567U 22051AL  26262.86072368  .00001359  00000+0  51365-4 0  9994","line2":"2 52567  53.1599 310.7421 0001248  84.9346 275.1799 15.34386736241122","mean_motion":15.34386736,"eccentricity":0.0001248,"inclination_deg":53.1599,"raan_deg":310.7421,"arg_perigee_deg":84.9346,"mean_anomaly_deg":275.1799,"bstar":5.1365e-5,"rev_number":24112,"period_min":93.848569347904,"perigee_km":461.88892211231,"apogee_km":463.59640567642,"semimajor_km":6840.8796638944,"source":"CELESTRAK","updated_at":"2026-09-20T09:00:40.064013Z"}}}